166894 ROAH-ROAH

Flight info

Callsign 166894
Flight time 0h 14m
Altitude 3000
Route TGL
Aircraft F18S/M-SDE2E3FGHIRWXY/LB1

Departure

Time 2026-04-24 06:02
Airport Naha International Airport (ROAH)

Arrival

Time 2026-04-24 06:16
Airport Naha International Airport (ROAH)
Time Latitude Longitude Altitude Speed Heading
2026-04-24 05:55 26.18853 127.65016 19 ft 0 kts 358°
2026-04-24 05:59 26.18866 127.65016 19 ft 5 kts 358°
2026-04-24 06:00 26.18856 127.64988 18 ft 12 kts 175°
2026-04-24 06:00 26.18836 127.64932 15 ft 14 kts 262°
2026-04-24 06:00 26.18775 127.64834 15 ft 21 kts 183°
2026-04-24 06:00 26.18592 127.64841 15 ft 31 kts 177°
2026-04-24 06:01 26.18346 127.64852 14 ft 31 kts 178°
2026-04-24 06:01 26.18242 127.64754 13 ft 22 kts 268°
2026-04-24 06:01 26.18275 127.64638 13 ft 13 kts 359°
2026-04-24 06:01 26.18280 127.64637 13 ft 0 kts 357°
2026-04-24 06:02 26.18297 127.64637 13 ft 15 kts 359°
2026-04-24 06:02 26.19053 127.64603 27 ft 216 kts 357°
2026-04-24 06:02 26.21281 127.64493 677 ft 361 kts 356°
2026-04-24 06:02 26.22752 127.64349 8991 ft 201 kts 345°
2026-04-24 06:03 26.24736 127.63590 10010 ft 334 kts 316°
2026-04-24 06:03 26.25432 127.61242 10493 ft 333 kts 259°
2026-04-24 06:03 26.23961 127.59324 10658 ft 353 kts 205°
2026-04-24 06:03 26.21647 127.59344 10540 ft 300 kts 175°
2026-04-24 06:04 26.19904 127.59739 5828 ft 237 kts 173°
2026-04-24 06:04 26.17888 127.60231 1175 ft 329 kts 169°
2026-04-24 06:04 26.16000 127.60583 1041 ft 236 kts 172°
2026-04-24 06:04 26.14848 127.61381 1065 ft 174 kts 111°
2026-04-24 06:05 26.14984 127.62523 734 ft 144 kts 59°
2026-04-24 06:05 26.15663 127.63212 636 ft 138 kts 22°
2026-04-24 06:05 26.16709 127.63407 321 ft 171 kts 360°
2026-04-24 06:05 26.17883 127.63358 55 ft 157 kts 356°
2026-04-24 06:06 26.18851 127.63306 13 ft 143 kts 357°
2026-04-24 06:06 26.20023 127.63255 391 ft 195 kts 356°
2026-04-24 06:06 26.21474 127.63049 1318 ft 222 kts 333°
2026-04-24 06:06 26.22117 127.61556 1741 ft 233 kts 263°
2026-04-24 06:07 26.20990 127.60547 1882 ft 220 kts 184°
2026-04-24 06:07 26.19489 127.60748 1720 ft 222 kts 175°
2026-04-24 06:07 26.17941 127.60962 1532 ft 224 kts 174°
2026-04-24 06:07 26.16420 127.61181 1277 ft 220 kts 175°
2026-04-24 06:08 26.14932 127.61457 1089 ft 204 kts 151°
2026-04-24 06:08 26.14578 127.62659 854 ft 148 kts 55°
2026-04-24 06:08 26.15369 127.63272 571 ft 142 kts 18°
2026-04-24 06:08 26.16332 127.63436 336 ft 142 kts 356°
2026-04-24 06:09 26.17325 127.63389 164 ft 145 kts 356°
2026-04-24 06:09 26.18354 127.63332 27 ft 139 kts 356°
2026-04-24 06:09 26.19212 127.63290 13 ft 136 kts 358°
2026-04-24 06:09 26.20456 127.63248 552 ft 221 kts 358°
2026-04-24 06:10 26.21666 127.62694 841 ft 180 kts 301°
2026-04-24 06:10 26.21497 127.61481 977 ft 157 kts 234°
2026-04-24 06:10 26.20907 127.61088 975 ft 158 kts 200°
2026-04-24 06:11 26.17785 127.61414 1265 ft 258 kts 173°
2026-04-24 06:11 26.16088 127.61686 1101 ft 238 kts 172°
2026-04-24 06:11 26.14528 127.61939 1014 ft 218 kts 173°
2026-04-24 06:11 26.13544 127.62747 1085 ft 140 kts 87°
2026-04-24 06:12 26.14242 127.63486 686 ft 171 kts 11°
2026-04-24 06:12 26.15417 127.63488 533 ft 168 kts 355°
2026-04-24 06:12 26.16593 127.63429 321 ft 171 kts 355°
2026-04-24 06:12 26.18175 127.63342 30 ft 169 kts 357°
2026-04-24 06:13 26.18891 127.63307 13 ft 137 kts 356°
2026-04-24 06:13 26.20093 127.63257 577 ft 237 kts 357°
2026-04-24 06:13 26.21639 127.63059 1346 ft 216 kts 330°
2026-04-24 06:13 26.22178 127.61682 1710 ft 206 kts 265°
2026-04-24 06:14 26.21084 127.60806 1454 ft 214 kts 184°
2026-04-24 06:14 26.19626 127.60972 1417 ft 207 kts 176°
2026-04-24 06:14 26.18222 127.61173 1425 ft 197 kts 175°
2026-04-24 06:14 26.16904 127.61339 1476 ft 184 kts 176°
2026-04-24 06:15 26.15622 127.61498 1436 ft 195 kts 174°
2026-04-24 06:15 26.14650 127.62367 1063 ft 193 kts 92°
2026-04-24 06:15 26.15334 127.63372 607 ft 166 kts
2026-04-24 06:15 26.16476 127.63423 310 ft 171 kts 356°
2026-04-24 06:16 26.17749 127.63365 107 ft 193 kts 356°
2026-04-24 06:16 26.19042 127.63301 14 ft 164 kts 357°
2026-04-24 06:16 26.19841 127.63261 15 ft 76 kts 358°
2026-04-24 06:16 26.20170 127.63249 15 ft 20 kts 15°
2026-04-24 06:17 26.20211 127.63379 14 ft 18 kts 88°
2026-04-24 06:17 26.20217 127.63534 14 ft 21 kts 86°
2026-04-24 06:17 26.20223 127.63691 14 ft 20 kts 86°
2026-04-24 06:17 26.20228 127.63836 14 ft 18 kts 90°
2026-04-24 06:18 26.20233 127.63971 14 ft 17 kts 88°
2026-04-24 06:18 26.20238 127.64098 14 ft 16 kts 87°
2026-04-24 06:18 26.20244 127.64216 14 ft 15 kts 86°
2026-04-24 06:18 26.20245 127.64227 14 ft 0 kts 89°